Location: Eschertshofen
(49.3064°N, 11.5756°E)
Time: 17:26:46
(UTC+00:00)

Cosmos 2082 Rocket - Pass Details

Date: 18 September 2020
Orbit: 834 x 853 km, 71.0° (Epoch: 30 October)

Event Time Altitude Azimuth Distance (km) Brightness Sun altitude
Rises 22:24:06 0° 323° (NW) 3,392 6.1 -38.4°
Reaches altitude 10° 22:26:54 10° 311° (NW) 2,454 5.1 -38.5°
Enters shadow 22:28:28 17° 299° (WNW) 2,015 4.5 -38.6°
